Date String (YYYY-MM-DD hh:mm:ss) UTC,Instrument flags,Ambient pressure (hPa),Sample flow (lpm),Bypass flow (lpm),Sample temperature (°C),Ambient temperature (°C),ASC tube jacket temperature (°C),LED temperature (°C),Box temperature (°C),Sample RH (%),Span deviation,Mass concentration (μg/m³),Mass concentration (μg/m³),Mass concentration (μg/m³)
DateTimeUTC,F1_M11,P_M11,Q1_M11,Q2_M11,T1_M11,T2_M11,T3_M11,T4_M11,T5_M11,U1_M11,ZSPAN_M11,X0_M11,X2_M11,X1_M11
2022-12-17 13:00:00,,0822.0,4.95,0.00,22.1,20.5,00.0,30.9,23.8,03.6,0000.0,0004.94,0003.05,0002.42
2022-12-17 13:01:00,,0821.9,5.04,0.00,22.0,20.4,00.0,30.9,23.7,03.6,0000.0,0004.77,0003.04,0002.43
2022-12-17 13:02:00,,0821.9,4.96,0.00,22.0,20.3,00.0,30.9,23.7,03.7,0000.0,0004.73,0003.01,0002.43
2022-12-17 13:03:00,,0822.0,5.04,0.00,22.0,20.4,00.0,30.9,23.7,03.7,0000.0,0004.58,0003.02,0002.46
2022-12-17 13:04:00,,0821.9,4.98,0.00,22.0,21.3,00.0,30.8,23.9,03.7,0000.0,0004.87,0003.12,0002.48
2022-12-17 13:05:00,,0822.0,5.04,0.00,22.1,22.1,00.0,30.8,24.1,03.7,0000.0,0005.07,0003.15,0002.49
2022-12-17 13:06:00,,0821.9,4.96,0.00,22.2,22.0,00.0,30.9,24.1,03.7,0000.0,0005.06,0003.14,0002.51
2022-12-17 13:07:00,,0822.2,5.05,0.00,22.2,21.6,00.0,30.9,24.1,03.7,0000.0,0005.01,0003.13,0002.52
2022-12-17 13:08:00,,0822.2,4.97,0.00,22.2,21.3,00.0,31.0,24.0,03.7,0000.0,0005.06,0003.14,0002.53
2022-12-17 13:09:00,,0822.0,5.04,0.00,22.1,21.0,00.0,31.0,23.9,03.6,0000.0,0005.17,0003.16,0002.55
2022-12-17 13:10:00,,0822.0,4.96,0.00,22.1,20.8,00.0,31.0,23.8,03.7,0000.0,0006.19,0003.18,0002.56
2022-12-17 13:11:00,,0821.9,5.03,0.00,22.1,20.6,00.0,31.0,23.8,03.7,0000.0,0007.00,0003.19,0002.55
2022-12-17 13:12:00,,0821.8,4.96,0.00,22.0,20.5,00.0,31.0,23.7,03.7,0000.0,0007.49,0003.20,0002.53
2022-12-17 13:13:00,,0822.1,5.04,0.00,22.0,20.3,00.0,30.9,23.7,03.7,0000.0,0007.49,0003.21,0002.53
2022-12-17 13:14:00,,0822.1,4.95,0.00,21.9,20.2,00.0,30.9,23.6,03.7,0000.0,0007.45,0003.20,0002.52
2022-12-17 13:15:00,,0822.1,5.04,0.00,21.9,20.4,00.0,30.9,23.7,03.7,0000.0,0007.33,0003.18,0002.54
2022-12-17 13:16:00,,0821.9,4.98,0.00,22.0,21.5,00.0,30.8,23.9,03.6,0000.0,0007.64,0003.17,0002.57
2022-12-17 13:17:00,,0821.9,5.02,0.00,22.1,22.3,00.0,30.8,24.1,03.6,0000.0,0007.61,0003.15,0002.58
2022-12-17 13:18:00,,0821.9,4.96,0.00,22.2,22.4,00.0,30.9,24.2,03.6,0000.0,0007.71,0003.18,0002.58
2022-12-17 13:19:00,,0822.0,5.04,0.00,22.2,21.9,00.0,30.9,24.2,03.6,0000.0,0007.81,0003.21,0002.57
2022-12-17 13:20:00,,0822.1,4.98,0.00,22.2,21.5,00.0,31.0,24.0,03.6,0000.0,0007.82,0003.21,0002.54
2022-12-17 13:21:00,,0822.0,4.98,0.00,22.2,21.1,00.0,31.0,23.9,03.6,0000.0,0007.30,0003.18,0002.50
2022-12-17 13:22:00,,0821.9,5.03,0.00,22.1,20.8,00.0,31.0,23.9,03.6,0000.0,0007.57,0003.17,0002.48
2022-12-17 13:23:00,,0822.0,4.98,0.00,22.1,20.6,00.0,31.0,23.8,03.6,0000.0,0007.34,0003.19,0002.47
2022-12-17 13:24:00,,0822.1,4.99,0.00,22.1,20.5,00.0,31.0,23.7,03.6,0000.0,0007.31,0003.18,0002.45
2022-12-17 13:25:00,,0822.1,5.03,0.00,22.0,20.4,00.0,31.0,23.7,03.6,0000.0,0007.34,0003.20,0002.44
2022-12-17 13:26:00,,0822.0,4.96,0.00,22.0,20.3,00.0,30.9,23.7,03.6,0000.0,0007.35,0003.19,0002.42
2022-12-17 13:27:00,,0822.0,5.02,0.00,21.9,20.2,00.0,30.9,23.6,03.6,0000.0,0006.79,0003.16,0002.36
2022-12-17 13:28:00,,0822.0,4.96,0.00,21.9,20.3,00.0,30.9,23.6,03.6,0000.0,0006.62,0003.16,0002.33
2022-12-17 13:29:00,,0822.0,5.05,0.00,22.0,21.1,00.0,30.8,23.8,03.6,0000.0,0006.52,0003.11,0002.29
2022-12-17 13:30:00,,0822.1,4.99,0.00,22.1,21.9,00.0,30.8,24.0,03.6,0000.0,0006.32,0003.04,0002.26
2022-12-17 13:31:00,,0822.0,4.99,0.00,22.1,21.8,00.0,30.9,24.0,03.6,0000.0,0006.24,0003.00,0002.25
2022-12-17 13:32:00,,0822.1,5.02,0.00,22.1,21.5,00.0,30.9,24.0,03.6,0000.0,0006.18,0003.00,0002.27
2022-12-17 13:33:00,,0822.1,4.97,0.00,22.1,21.1,00.0,30.9,23.9,03.6,0000.0,0005.54,0002.98,0002.26
2022-12-17 13:34:00,,0822.1,5.05,0.00,22.0,20.9,00.0,30.9,23.8,03.6,0000.0,0005.32,0002.90,0002.24
2022-12-17 13:35:00,,0822.1,4.96,0.00,22.0,20.6,00.0,30.9,23.7,03.6,0000.0,0005.37,0002.88,0002.22
2022-12-17 13:36:00,,0822.1,5.04,0.00,22.0,20.4,00.0,30.9,23.6,03.6,0000.0,0005.44,0002.83,0002.20
2022-12-17 13:37:00,,0822.1,4.96,0.00,21.9,20.3,00.0,30.9,23.6,03.6,0000.0,0005.41,0002.79,0002.17
2022-12-17 13:38:00,,0822.1,5.04,0.00,21.9,20.2,00.0,30.9,23.6,03.6,0000.0,0005.33,0002.82,0002.16
2022-12-17 13:39:00,,0822.1,4.96,0.00,21.9,20.5,00.0,30.8,23.6,03.6,0000.0,0005.71,0002.77,0002.13
2022-12-17 13:40:00,,0822.1,5.06,0.00,22.0,21.5,00.0,30.8,23.9,03.7,0000.0,0005.84,0002.76,0002.10
2022-12-17 13:41:00,,0822.1,4.97,0.00,22.1,22.1,00.0,30.8,24.0,03.6,0000.0,0005.72,0002.71,0002.08
2022-12-17 13:42:00,,0822.1,5.02,0.00,22.1,21.8,00.0,30.9,24.1,03.6,0000.0,0005.63,0002.67,0002.04
2022-12-17 13:43:00,,0822.1,5.01,0.00,22.1,21.5,00.0,30.9,24.0,03.6,0000.0,0005.61,0002.65,0002.02
2022-12-17 13:44:00,,0822.1,4.97,0.00,22.1,21.2,00.0,30.9,23.9,03.5,0000.0,0004.95,0002.58,0001.99
2022-12-17 13:45:00,,0822.1,5.02,0.00,22.1,20.9,00.0,30.9,23.8,03.5,0000.0,0004.72,0002.54,0001.98
2022-12-17 13:46:00,,0822.0,4.96,0.00,22.1,20.7,00.0,30.9,23.8,03.6,0000.0,0004.86,0002.54,0001.98
2022-12-17 13:47:00,,0822.0,5.06,0.00,22.0,20.6,00.0,30.9,23.7,03.6,0000.0,0005.08,0002.51,0001.97
2022-12-17 13:48:00,,0822.1,4.96,0.00,22.0,20.5,00.0,30.9,23.7,03.6,0000.0,0005.14,0002.48,0001.97
2022-12-17 13:49:00,,0822.1,5.04,0.00,22.0,20.4,00.0,30.9,23.7,03.6,0000.0,0005.10,0002.42,0001.97
2022-12-17 13:50:00,,0822.1,4.95,0.00,21.9,20.3,00.0,30.9,23.7,03.6,0000.0,0004.55,0002.40,0001.96
2022-12-17 13:51:00,,0822.1,5.04,0.00,21.9,20.8,00.0,30.8,23.8,03.6,0000.0,0004.57,0002.42,0001.98
2022-12-17 13:52:00,,0822.1,4.96,0.00,22.0,21.8,00.0,30.8,24.0,03.5,0000.0,0005.01,0002.50,0002.01
2022-12-17 13:53:00,,0822.1,5.02,0.00,22.1,22.2,00.0,30.8,24.1,03.5,0000.0,0005.06,0002.54,0002.03
2022-12-17 13:54:00,,0822.1,5.01,0.00,22.2,21.8,00.0,30.9,24.1,03.5,0000.0,0005.16,0002.56,0002.04
2022-12-17 13:55:00,,0822.1,4.97,0.00,22.1,21.4,00.0,30.9,24.0,03.5,0000.0,0005.20,0002.58,0002.07
2022-12-17 13:56:00,,0822.1,5.04,0.00,22.1,21.0,00.0,30.9,23.9,03.5,0000.0,0005.59,0002.65,0002.08
2022-12-17 13:57:00,,0822.1,4.96,0.00,22.1,20.8,00.0,30.9,23.9,03.5,0000.0,0005.40,0002.64,0002.08
2022-12-17 13:58:00,,0822.1,5.05,0.00,22.1,20.6,00.0,30.9,23.8,03.6,0000.0,0005.03,0002.66,0002.09
2022-12-17 13:59:00,,0822.1,4.95,0.00,22.0,20.5,00.0,30.9,23.8,03.6,0000.0,0004.88,0002.64,0002.08
